Weather observations for the past three days for
Dallas Love Field
Imperial (Metric)
Date Time (cdt) Wind (mph) Vis. (mi.) Weather Sky Cond. Temperature (ºF) Relative Humidity Wind Chill (°F) Heat Index (°F) Pressure Precipitation (in)
Air Dwpt 6 hour altimeter (in) sea level (mb) 1 hr 3 hr 6 hr
Max. Min.
25 09:53 S 8 10.00 Partly Cloudy SCT021 87.1 77 72% 99 29.94 1013.0
25 08:53 S 10 10.00 A Few Clouds FEW017 FEW250 86 77 75% 97 29.95 1013.2
25 07:53 S 7 10.00 A Few Clouds FEW015 FEW250 82.9 77 82% 92 29.94 1012.8
25 06:53 S 7 10.00 A Few Clouds FEW015 FEW250 82 75.9 87.1 81 82% 89 29.93 1012.5
25 05:53 S 7 10.00 A Few Clouds FEW250 82 75.9 82% 89 29.92 1012.2
25 04:53 S 7 10.00 A Few Clouds FEW250 82.9 75 77% 90 29.91 1011.9
25 03:53 S 7 10.00 Fair CLR 84 75 74% 92 29.9 1011.6
25 02:53 S 10 10.00 A Few Clouds FEW040 84.9 73.9 70% 92 29.9 1011.6
25 01:53 S 8 10.00 A Few Clouds FEW040 86 73 65% 93 29.91 1011.8
25 00:53 S 7 10.00 Fair CLR 87.1 73 95 87.1 63% 95 29.91 1011.8
24 23:53 S 8 10.00 Fair CLR 88 72 59% 95 29.9 1011.5
24 22:53 SE 9 10.00 Fair CLR 89.1 72 57% 96 29.89 1011.2
24 21:53 SE 9 G 17 10.00 Fair CLR 90 71.1 54% 96 29.87 1010.5
24 20:53 S 10 10.00 A Few Clouds FEW080 FEW250 91.9 71.1 51% 99 29.86 1010.3
24 19:53 S 14 10.00 A Few Clouds FEW070 FEW100 93 71.1 49% 100 29.86 1010.3
24 18:53 SE 13 10.00 A Few Clouds FEW070TCU FEW100 95 72 97 93 47% 103 29.86 1010.3
24 17:53 SE 10 G 20 10.00 Partly Cloudy SCT065 SCT090 96.1 72 46% 105 29.87 1010.6
24 16:53 SE 13 G 21 10.00 Partly Cloudy SCT060 SCT090 97 71.1 43% 105 29.89 1011.2
24 15:53 S 10 10.00 Partly Cloudy SCT070 SCT085 96.1 70 43% 103 29.9 1011.8
24 14:53 SE 8 10.00 Partly Cloudy SCT060 95 70 44% 101 29.92 1012.4
24 13:53 Vrbl 6 10.00 Partly Cloudy SCT055 93.9 71.1 48% 101 29.94 1012.9
24 12:53 Vrbl 5 10.00 Partly Cloudy SCT047 93 70 93.9 82.9 47% 99 29.96 1013.5
24 11:53 SW 9 10.00 Partly Cloudy SCT042 SCT055 93 73.9 54% 103 29.97 1013.9
24 10:53 W 8 10.00 Partly Cloudy SCT040 90 73 58% 98 29.97 1014.0
24 09:53 S 7 10.00 A Few Clouds FEW100 89.1 73 59% 97 29.97 1014.1
24 08:53 SW 8 10.00 A Few Clouds FEW100 86 71.1 61% 92 29.97 1014.2
24 07:53 Calm 10.00 A Few Clouds FEW100 FEW250 84.9 68 57% 88 29.96 1013.7
24 06:53 Calm 10.00 A Few Clouds FEW100 FEW250 82.9 68 87.1 81 61% 86 29.95 1013.2
24 05:53 SW 3 10.00 A Few Clouds FEW250 82 68 63% 85 29.93 1012.6
24 04:53 W 3 10.00 Fair CLR 82.9 68 61% 86 29.92 1012.2
24 03:53 SW 3 10.00 Fair CLR 84 68 59% 87 29.91 1012.0
24 02:53 Vrbl 5 10.00 Fair CLR 84.9 66.9 55% 88 29.91 1012.0
24 01:53 SW 3 10.00 Fair CLR 86 69.1 57% 90 29.92 1012.3
24 00:53 S 6 10.00 Fair CLR 87.1 71.1 96.1 87.1 59% 93 29.92 1012.4
23 23:53 S 6 10.00 Fair CLR 88 70 55% 93 29.92 1012.4
23 22:53 S 8 10.00 Fair CLR 89.1 68 50% 93 29.92 1012.2
23 21:53 S 13 10.00 Fair CLR 91 70 50% 97 29.9 1011.7
23 20:53 SE 10 10.00 A Few Clouds FEW080 91.9 70 49% 98 29.88 1011.0
23 19:53 SE 8 10.00 A Few Clouds FEW070 93.9 68 43% 98 29.88 1011.0
23 18:53 S 8 10.00 A Few Clouds FEW070 96.1 68 99 93.9 40% 101 29.88 1010.9
23 17:53 SW 7 10.00 A Few Clouds FEW070 97 68 39% 102 29.88 1011.1
23 16:53 Vrbl 6 10.00 Partly Cloudy SCT065 97 68 39% 102 29.89 1011.4
23 15:53 Vrbl 5 10.00 Partly Cloudy SCT060 96.1 66.9 39% 100 29.91 1012.1
23 14:53 Vrbl 5 10.00 Partly Cloudy SCT055 96.1 69.1 41% 102 29.94 1012.9
23 13:53 Vrbl 5 10.00 A Few Clouds FEW050 95 69.1 43% 101 29.96 1013.5
23 12:53 Vrbl 3 10.00 A Few Clouds FEW048 93 70 93.9 81 47% 99 29.97 1014.1
23 11:53 SW 7 G 16 10.00 A Few Clouds FEW040 91.9 70 49% 98 29.99 1014.7
23 10:53 SW 9 G 18 10.00 Fair CLR 90 70 52% 95 29.99 1014.8
23 09:53 SW 9 10.00 A Few Clouds FEW100 87.1 71.1 59% 93 30 1015.0
23 08:53 SW 7 10.00 A Few Clouds FEW100 FEW250 84 71.1 65% 89 30 1015.0
23 07:53 SW 7 10.00 A Few Clouds FEW100 FEW250 82 73 74% 87 29.99 1014.7
23 06:53 SW 3 10.00 A Few Clouds FEW250 81 72 86 80.1 74% 85 29.97 1014.1
23 05:53 SW 3 10.00 A Few Clouds FEW250 81 71.1 72% 85 29.96 1013.5
23 04:53 SW 6 10.00 Fair CLR 82 71.1 69% 86 29.95 1013.2
23 03:53 Calm 10.00 Fair CLR 82.9 70 65% 87 29.95 1013.2
23 02:53 S 7 10.00 Fair CLR 84 69.1 61% 88 29.95 1013.4
23 01:53 S 6 10.00 Fair CLR 84.9 69.1 59% 89 29.97 1013.8
23 00:53 S 7 10.00 Fair CLR 86 68 93.9 86 55% 89 29.97 1014.2
22 23:53 S 7 10.00 A Few Clouds FEW250 87.1 68 53% 91 29.98 1014.4
22 22:53 S 7 10.00 A Few Clouds FEW250 89.1 68 50% 93 29.97 1014.2
22 21:53 S 8 10.00 Fair CLR 90 68 48% 94 29.96 1013.6
22 20:53 S 7 10.00 A Few Clouds FEW065 91 66 44% 94 29.95 1013.2
22 19:53 S 12 G 17 10.00 A Few Clouds FEW065 93 66 41% 96 29.94 1013.1
22 18:53 S 10 10.00 A Few Clouds FEW065 93.9 66.9 96.1 90 41% 98 29.94 1013.0
22 17:53 SW 10 10.00 A Few Clouds FEW065 95 66.9 40% 99 29.95 1013.3
22 16:53 S 8 10.00 A Few Clouds FEW060 93.9 66.9 41% 98 29.96 1013.8
22 15:53 SW 7 10.00 A Few Clouds FEW060 93.9 66.9 41% 98 29.98 1014.2
22 14:53 S 8 10.00 A Few Clouds FEW055 93 69.1 46% 98 29.99 1014.8
22 13:53 SW 8 G 18 10.00 A Few Clouds FEW050 91.9 69.1 47% 97 30.02 1015.7
22 12:53 S 9 10.00 Partly Cloudy SCT045 91.9 70 91.9 80.1 49% 98 30.04 1016.5
22 11:53 SW 8 G 18 10.00 A Few Clouds FEW039 89.1 71.1 55% 95 30.06 1017.1
22 10:53 S 6 G 16 10.00 A Few Clouds FEW028 87.1 73 63% 95 30.08 1017.6
Date Time (cdt) Wind (mph) Vis. (mi.) Weather Sky Cond. Air Dwpt Max. Min. Relative Humidity Wind Chill (°F) Heat Index (°F) altimeter (in) sea level (mb) 1 hr 3 hr 6 hr
6 hour
Temperature (ºF) Pressure Precipitation (in)